Flag for Germany Weather past 2 weeks in Zittau, Saxony, Germany

Now
39 °F

Overcast.


Feels Like: 36 °F
Forecast: 34 / 39 °F
Wind: 5 mph from Southwest

Location: Liberec

Current Time: Dec 20, 2014 at 3:38:19 PM

Latest Report: Dec 20, 2014 at 3:00 PM


Visibility: 16 mi

Pressure: 29.96 "Hg

Humidity: 72%

Dew point: 31 °F

Location of ZittauLocation

Historic Weather in Zittau — Graph

°F

Zittau temperature yesterday

Maximum temperature yesterday: 51 °F (at 4:00 AM)
Minimum temperature yesterday: 43 °F (at 11:00 PM)
Average temperature yesterday: 48 °F

Past Weeks' High & Low Weather Summary

 TemperatureHumidityPressure
High51 °F (Dec 19, 4:00 AM)100% (Dec 6, 6:00 AM)30.49 "Hg (Dec 6, 6:00 AM)
Low21 °F (Dec 9, 7:00 AM)63% (Dec 9, 2:00 PM)29.66 "Hg (Dec 12, 9:00 PM)
Average38 °F89%30.01 "Hg
* Reported Dec 5 2:00 PM — Dec 20 2:00 PM, Zittau, Weather by CustomWeather, © 2014

Note: Actual official high and low records may vary slightly from our data, if they occured in-between our weather recording intervals... More about our weather records

Advertising

Zittau weather history for previous 24 hours

 ConditionsComfort  
Time TempWeatherWind HumidityBarometerVisibility
2:00 PM
Dec 20
39 °FOvercast.6 mph73%29.99 "Hg16 mi
1:00 PM39 °FOvercast.7 mph73%30.01 "Hg19 mi
12:00 PM39 °FOvercast.7 mph73%30.03 "Hg17 mi
11:00 AM39 °FOvercast.6 mph73%30.06 "Hg17 mi
10:00 AM38 °FPartly sunny.6 mph74%30.09 "Hg17 mi
9:00 AM38 °FPartly sunny.6 mph75%30.08 "Hg19 mi
8:00 AM37 °FPartly sunny.6 mph76%30.08 "Hg16 mi
7:00 AM37 °FPassing clouds.6 mph74%30.08 "Hg14 mi
6:00 AM38 °FChilly.7 mph71%30.07 "Hg12 mi
5:00 AM38 °FChilly.7 mph73%30.05 "Hg12 mi
4:00 AM38 °FChilly.7 mph74%30.05 "Hg12 mi
3:00 AM39 °FChilly.7 mph71%30.05 "Hg12 mi
2:00 AM40 °FQuite cool.7 mph76%30.02 "Hg12 mi
1:00 AM41 °FQuite cool.6 mph82%29.99 "Hg12 mi
12:00 AM41 °FQuite cool.5 mph78%29.97 "Hg12 mi
11:00 PM
Dec 19
43 °FQuite cool.8 mph79%29.93 "Hg12 mi
10:00 PM44 °FQuite cool.7 mph80%29.91 "Hg12 mi
9:00 PM43 °FLight rain. Overcast.5 mph82%29.88 "Hg12 mi
8:00 PM44 °FLight rain. Overcast.6 mph90%29.88 "Hg12 mi
7:00 PM47 °FLight rain. Overcast.6 mph90%29.83 "Hg8 mi
6:00 PM48 °FLight rain. Overcast.8 mph88%29.82 "Hg8 mi
5:00 PM48 °FLight rain. Overcast.8 mph87%29.82 "Hg9 mi
4:00 PM48 °FLight rain. Overcast.6 mph85%29.83 "Hg7 mi
3:00 PM49 °FLight rain. Overcast.7 mph83%29.83 "Hg14 mi
Weather by CustomWeather, © 2014

See weather overviewHow to use our weather pages